Find Kosmos-565

NORAD ID: 6676 Int'l Des: 1973-037 Owner: GUKOSR Country: SU operational
LEOCIRCULAR

リアルタイム位置

3D地球を読み込み中...

Kosmos-565について

説明を読み込み中...

次回通過

Passes for default location (London). Set your location on the main map for personalized predictions.

高度履歴

Loading altitude history...

軌道要素

1 6676U 73037B 26139.46399605 -.00000001 00000-0 10041-3 0 9999
2 6676 74.0210 43.9007 0025964 333.4231 138.3546 12.48970335413920
Epoch: May 19, 2026 • Age: 14 hours

現在のステータス

高度 1469.7 km
速度 7.14 km/s
衛星直下点 -50.74°S, 120.48°E
タイプ other

Most Searched